Date String (YYYY-MM-DD hh:mm:ss) UTC,Instrument flags,absolute air pressure of the measurement (hPa),sample flow rate (lpm),inlet stack bypass flow (lpm),air temperature of the measurement (°C),ambient temperature measured by the external sensor (°C),aerosol sample conditioner tube jacket temperature (°C),OPC LED temperature (°C),internal box temperature (°C),relative humidity of the measurement (%),span deviation,mass concentration of particles derived from Lorenz-Mie calculation of OPC scattering (μg/m³),mass concentration of particles derived from Lorenz-Mie calculation of OPC scattering (μg/m³),mass concentration of particles derived from Lorenz-Mie calculation of OPC scattering (μg/m³)
DateTimeUTC,F1_M11,P_M11,Q1_M11,Q2_M11,T1_M11,T2_M11,T3_M11,T4_M11,T5_M11,U1_M11,ZSPAN_M11,X2_M11,X0_M11,X1_M11
2024-04-28 16:00:00,SystemResetWarning,0825.1,4.99,000.00,021.3,020.6,000.0,029.8,023.1,026.4,0000.0,0004.69,0005.87,0004.61
2024-04-28 16:01:00,SystemResetWarning,0825.1,4.99,000.00,021.3,020.7,000.0,029.8,023.1,025.9,0000.0,0004.67,0005.85,0004.61
2024-04-28 16:02:00,SystemResetWarning,0825.1,5.00,000.00,021.3,020.7,000.0,029.8,023.1,026.5,0000.0,0004.65,0005.79,0004.59
2024-04-28 16:03:00,SystemResetWarning,0825.0,5.00,000.00,021.3,020.7,000.0,029.8,023.1,026.4,0000.0,0004.64,0005.76,0004.58
2024-04-28 16:04:00,SystemResetWarning,0825.0,5.00,000.00,021.3,020.7,000.0,029.8,023.1,026.0,0000.0,0004.62,0005.73,0004.56
2024-04-28 16:05:00,SystemResetWarning,0825.0,5.01,000.00,021.3,020.7,000.0,029.8,023.1,026.3,0000.0,0004.61,0005.74,0004.55
2024-04-28 16:06:00,SystemResetWarning,0825.0,4.99,000.00,021.3,020.7,000.0,029.8,023.1,026.1,0000.0,0004.61,0005.68,0004.56
2024-04-28 16:07:00,SystemResetWarning,0825.0,4.99,000.00,021.3,020.7,000.0,029.8,023.1,027.1,0000.0,0004.60,0005.55,0004.56
2024-04-28 16:08:00,SystemResetWarning,0825.1,4.99,000.00,021.3,020.7,000.0,029.8,023.1,028.1,0000.0,0004.59,0005.53,0004.56
2024-04-28 16:09:00,SystemResetWarning,0825.0,4.99,000.00,021.4,020.7,000.0,029.8,023.1,026.9,0000.0,0004.60,0005.55,0004.56
2024-04-28 16:10:00,SystemResetWarning,0825.0,5.00,000.00,021.3,020.7,000.0,029.8,023.1,027.6,0000.0,0004.60,0005.72,0004.56
2024-04-28 16:11:00,SystemResetWarning,0825.1,5.01,000.00,021.4,020.7,000.0,029.8,023.1,028.0,0000.0,0004.59,0005.89,0004.55
2024-04-28 16:12:00,SystemResetWarning,0825.1,5.01,000.00,021.4,020.7,000.0,029.8,023.1,029.2,0000.0,0004.60,0006.06,0004.54
2024-04-28 16:13:00,SystemResetWarning,0825.1,5.00,000.00,021.4,020.7,000.0,029.8,023.1,027.3,0000.0,0004.60,0006.17,0004.54
2024-04-28 16:14:00,SystemResetWarning,0825.0,4.99,000.00,021.4,020.7,000.0,029.8,023.1,028.5,0000.0,0004.61,0006.23,0004.54
2024-04-28 16:15:00,SystemResetWarning,0825.0,5.00,000.00,021.4,020.7,000.0,029.8,023.1,028.4,0000.0,0004.63,0006.28,0004.56
2024-04-28 16:16:00,SystemResetWarning,0825.1,4.99,000.00,021.4,020.7,000.0,029.8,023.1,027.5,0000.0,0004.64,0006.32,0004.57
2024-04-28 16:17:00,SystemResetWarning,0825.0,5.01,000.00,021.4,020.7,000.0,029.8,023.2,027.0,0000.0,0004.63,0006.32,0004.55
2024-04-28 16:18:00,SystemResetWarning,0825.0,5.01,000.00,021.4,020.7,000.0,029.8,023.1,027.8,0000.0,0004.61,0006.31,0004.53
2024-04-28 16:19:00,SystemResetWarning,0825.0,5.00,000.00,021.4,020.7,000.0,029.8,023.1,027.7,0000.0,0004.60,0006.92,0004.50
2024-04-28 16:20:00,SystemResetWarning,0825.0,5.00,000.00,021.4,020.6,000.0,029.8,023.1,026.7,0000.0,0004.58,0007.19,0004.48
2024-04-28 16:21:00,SystemResetWarning,0825.0,4.99,000.00,021.3,020.6,000.0,029.8,023.1,027.1,0000.0,0004.56,0007.13,0004.46
2024-04-28 16:22:00,SystemResetWarning,0825.0,4.99,000.00,021.3,020.6,000.0,029.8,023.1,026.7,0000.0,0004.57,0006.84,0004.46
2024-04-28 16:23:00,SystemResetWarning,0825.0,5.00,000.00,021.3,020.6,000.0,029.8,023.1,026.9,0000.0,0004.58,0006.78,0004.47
2024-04-28 16:24:00,SystemResetWarning,0825.0,5.00,000.00,021.3,020.6,000.0,029.8,023.1,027.0,0000.0,0004.58,0006.65,0004.47
2024-04-28 16:25:00,SystemResetWarning,0824.9,5.01,000.00,021.3,020.6,000.0,029.8,023.1,027.2,-000.6,0004.56,0006.60,0004.46
2024-04-28 16:26:00,SystemResetWarning,0824.9,5.01,000.00,021.3,020.6,000.0,029.8,023.1,027.0,-000.6,0004.56,0006.58,0004.47
2024-04-28 16:27:00,SystemResetWarning,0824.9,5.01,000.00,021.3,020.6,000.0,029.8,023.1,028.0,0000.0,0004.55,0006.55,0004.46
2024-04-28 16:28:00,SystemResetWarning,0824.9,4.99,000.00,021.3,020.6,000.0,029.8,023.1,028.2,0000.0,0004.55,0006.54,0004.47
2024-04-28 16:29:00,SystemResetWarning,0824.9,5.00,000.00,021.3,020.6,000.0,029.8,023.1,029.4,0000.0,0004.58,0006.61,0004.48
2024-04-28 16:30:00,SystemResetWarning,0824.9,4.99,000.00,021.3,020.6,000.0,029.8,023.1,027.8,0000.0,0004.59,0006.16,0004.50
2024-04-28 16:31:00,SystemResetWarning,0824.9,4.99,000.00,021.3,020.6,000.0,029.8,023.1,027.3,0000.0,0004.59,0005.75,0004.51
2024-04-28 16:32:00,SystemResetWarning,0824.9,4.99,000.00,021.3,020.6,000.0,029.8,023.1,028.0,0000.0,0004.60,0005.82,0004.52
2024-04-28 16:33:00,SystemResetWarning,0824.9,5.00,000.00,021.3,020.6,000.0,029.8,023.1,028.7,0000.0,0004.60,0006.06,0004.52
2024-04-28 16:34:00,SystemResetWarning,0825.0,5.01,000.00,021.3,020.6,000.0,029.8,023.1,028.8,0000.0,0004.61,0006.56,0004.52
2024-04-28 16:35:00,SystemResetWarning,0825.0,5.01,000.00,021.3,020.6,000.0,029.8,023.1,027.7,0000.0,0004.62,0006.58,0004.52
2024-04-28 16:36:00,SystemResetWarning,0824.9,5.00,000.00,021.3,020.6,000.0,029.8,023.1,027.4,0000.0,0004.68,0006.68,0004.57
2024-04-28 16:37:00,SystemResetWarning,0824.9,5.00,000.00,021.3,020.6,000.0,029.8,023.1,027.8,0000.0,0004.72,0006.78,0004.60
2024-04-28 16:38:00,SystemResetWarning,0825.0,4.99,000.00,021.3,020.6,000.0,029.8,023.1,028.5,0000.0,0004.77,0006.89,0004.63
2024-04-28 16:39:00,SystemResetWarning,0825.0,4.99,000.00,021.3,020.6,000.0,029.8,023.1,027.0,0000.0,0004.80,0006.96,0004.67
2024-04-28 16:40:00,SystemResetWarning,0824.9,5.00,000.00,021.3,020.6,000.0,029.8,023.1,026.9,0000.0,0004.82,0006.99,0004.70
2024-04-28 16:41:00,SystemResetWarning,0824.9,5.00,000.00,021.3,020.6,000.0,029.8,023.1,027.4,0000.0,0004.86,0007.08,0004.71
2024-04-28 16:42:00,SystemResetWarning,0824.9,5.00,000.00,021.3,020.6,000.0,029.8,023.1,027.5,0000.0,0004.92,0007.27,0004.75
2024-04-28 16:43:00,SystemResetWarning,0824.9,5.01,000.00,021.3,020.6,000.0,029.8,023.1,027.8,0000.0,0004.95,0007.26,0004.76
2024-04-28 16:44:00,SystemResetWarning,0824.9,5.01,000.00,021.3,020.6,000.0,029.8,023.1,027.6,0000.0,0004.94,0007.17,0004.76
2024-04-28 16:45:00,SystemResetWarning,0824.9,5.00,000.00,021.3,020.6,000.0,029.8,023.1,027.3,0000.0,0004.94,0007.88,0004.77
2024-04-28 16:46:00,SystemResetWarning,0824.9,5.00,000.00,021.3,020.6,000.0,029.8,023.1,027.5,0000.0,0004.95,0007.88,0004.78
2024-04-28 16:47:00,SystemResetWarning,0824.9,5.00,000.00,021.4,020.6,000.0,029.8,023.1,027.0,0000.0,0004.92,0007.83,0004.77
2024-04-28 16:48:00,SystemResetWarning,0824.9,5.00,000.00,021.4,020.6,000.0,029.8,023.1,027.4,0000.0,0004.91,0007.84,0004.75
2024-04-28 16:49:00,SystemResetWarning,0824.9,5.00,000.00,021.4,020.7,000.0,029.8,023.2,027.6,0000.0,0004.89,0007.87,0004.73
2024-04-28 16:50:00,SystemResetWarning,0824.9,5.00,000.00,021.4,020.7,000.0,029.8,023.2,026.7,0000.0,0004.89,0007.90,0004.72
2024-04-28 16:51:00,SystemResetWarning,0824.9,5.01,000.00,021.4,020.7,000.0,029.8,023.2,027.0,0000.0,0004.86,0007.88,0004.70
2024-04-28 16:52:00,SystemResetWarning,0824.9,5.00,000.00,021.4,020.7,000.0,029.8,023.2,027.5,0000.0,0004.86,0008.09,0004.70
2024-04-28 16:53:00,SystemResetWarning,0824.9,5.00,000.00,021.4,020.7,000.0,029.8,023.2,027.7,0000.0,0004.82,0008.08,0004.69
2024-04-28 16:54:00,SystemResetWarning,0824.9,4.99,000.00,021.4,020.7,000.0,029.9,023.2,028.3,0000.0,0004.83,0008.16,0004.69
2024-04-28 16:55:00,SystemResetWarning,0824.9,5.00,000.00,021.4,020.7,000.0,029.8,023.2,028.0,0000.0,0004.84,0008.15,0004.69
2024-04-28 16:56:00,SystemResetWarning,0824.9,4.99,000.00,021.4,020.7,000.0,029.8,023.2,027.7,0000.0,0004.84,0007.28,0004.68
2024-04-28 16:57:00,SystemResetWarning,0824.9,5.00,000.00,021.4,020.7,000.0,029.8,023.1,027.1,0000.0,0004.84,0007.26,0004.69
2024-04-28 16:58:00,SystemResetWarning,0824.9,5.00,000.00,021.4,020.7,000.0,029.8,023.1,027.3,0000.0,0004.85,0007.29,0004.69
2024-04-28 16:59:00,SystemResetWarning,0824.9,5.01,000.00,021.4,020.7,000.0,029.8,023.1,027.7,0000.0,0004.84,0007.22,0004.69
